sat.trackr.live / text

‹ back to catalog

STARLINK-35974

NORAD 66862 · 2025-281Q

PAYLOAD ACTIVE UNKNOWN

§ Identity

Operator
Country
US
Launch date
2025-12-02
Launch site
AFETR
Launch vehicle
Mass (kg)
RCS (m²)

Purposes: comms

External: N2YO · Heavens-Above · Gunter

§ Orbital elements

Epoch: 2026-09-20T20:32:01.234176Z

Period
94.27 min
Inclination
42.9986°
Eccentricity
0.0001900
Mean motion
15.27586651 rev/d
Perigee alt
481.7 km
Apogee alt
484.3 km
Semi-major
6,861.2 km
B*
5.3874e-4
RAAN
321.2770°
Arg perigee
278.6875°
Mean anomaly
81.3761°
Rev number
4,603

§ Raw data

STARLINK-359741 66862U 25281Q   26263.85556984  .00014595  00000+0  53874-3 0  99982 66862  42.9986 321.2770 0001900 278.6875  81.3761 15.27586651 46038

JSON: /api/v1/satellites/66862 · /tle

For live sub-satellite position, see the globe view (requires WebGL).

§ Visibility from observer

Set your observer location to see the next 7 days of passes ≥ 10°. The values pass through the URL so the page stays shareable.

No JS? Fill the form by hand. The geolocation button needs JavaScript.